Regional Weather Roundup
Issued by NWS

Home | Current Version | Previous Version | Graphics & Text | Print | Product List | Glossary On
Versions: 1 2 3 4 5 6 7 8 9 10 11 12 13 14 15 16 17 18 19 20 21 22 23 24 25 26 27 28 29 30 31 32 33 34 35 36 37 38 39 40 41 42 43 44 45 46 47 48 49 50
700
ASUS43 KIND 100659
RWRIN

WEATHER ROUNDUP FOR INDIANA
NATIONAL WEATHER SERVICE INDIANAPOLIS IN
200 AM EST WED FEB 10 2016

NOTE: "FAIR" INDICATES FEW OR NO CLOUDS BELOW 12,000 FEET WITH NO
SIGNIFICANT WEATHER AND/OR OBSTRUCTIONS TO VISIBILITY.

* - STATION DOES NOT REPORT WEATHER SUCH AS PRECIPITATION OR FOG.

+ - STATION NOT QUALITY CONTROLLED BY THE NATIONAL WEATHER SERVICE.
    USE DATA WITH CAUTION...ESPECIALLY DEWPOINT AND RELATIVE
    HUMIDITY OBSERVATIONS.

INZ001>003-010>013-019-020-100800-
NORTHWEST INDIANA

CITY           SKY/WX    TMP DP  RH WIND       PRES   REMARKS
VALPARAISO     LGT SNOW  14  10  84 W14       29.90S WCI  -1

$$

LMZ046-743>745-100800-
SOUTHERN LAKE MICHIGAN

STATION/POSITION TIME  TEMP    WIND        PRES    WAVE
                       AIR SEA DIR/SP/G            HT
                 (UTC) (F)     (DEG/KT/KT) (MB)    (FT)
BURNS HARBOR     0600   19     300/ 20/ 23 1013.5S
MICHIGAN CITY    0600   19     280/ 25/ 28   N/A

$$

INZ004-005-014>016-021>024-100800-
NORTH CENTRAL INDIANA

CITY           SKY/WX    TMP DP  RH WIND       PRES   REMARKS
GOSHEN         LGT SNOW  18  14  84 W13       29.82F FOG     WCI   5
PERU/GRISSOM   LGT SNOW  16  12  86 W13       29.87F WCI   2
SOUTH BEND     SNOW      19  16  88 NW12      29.84S VSB 1/2 WCI   7

$$

INZ006>009-017-018-025>027-100800-
NORTHEAST INDIANA

CITY           SKY/WX    TMP DP  RH WIND       PRES   REMARKS
ANGOLA *+      CLOUDY    18  16  93 W8        29.76F WCI   7
FORT WAYNE     FLURRIES  19  12  74 W16       29.84F WCI   4

$$

INZ028-029-035-036-043>045-051>053-100800-
WEST CENTRAL INDIANA

CITY           SKY/WX    TMP DP  RH WIND       PRES   REMARKS
GREENCASTLE +  CLOUDY    14   5  67 NW9       29.97R HAZE    WCI   2
LAFAYETTE      LGT SNOW  14   9  80 W14       29.96S WCI  -1
TERRE HAUTE    LGT SNOW  15   8  73 W14       30.01S WCI   0

$$

INZ030>032-037>040-046>048-054>057-064-065-100800-
CENTRAL INDIANA

CITY           SKY/WX    TMP DP  RH WIND       PRES   REMARKS
INDIANAPOLIS   FLURRIES  15   8  73 W14G23    29.93S WCI   0
-EAGLE CREEK   FLURRIES  15   9  76 W12       29.93S WCI   2
KOKOMO *+      CLOUDY    16   9  73 NW18      29.89F WCI  -1
MT COMFORT *+  CLOUDY    14  10  85 W13       29.92S WCI   0
SHELBYVILLE    LGT SNOW  17  11  77 W8        29.93S WCI   7

$$

INZ033-034-041-042-049-050-058-059-100800-
EAST CENTRAL INDIANA

CITY           SKY/WX    TMP DP  RH WIND       PRES   REMARKS
MUNCIE         LGT SNOW  16  10  77 W12       29.88F WCI   3

$$

INZ060-061-067>069-081>083-085>088-100800-
SOUTHWEST INDIANA

CITY           SKY/WX    TMP DP  RH WIND       PRES   REMARKS
EVANSVILLE     CLOUDY    19   9  65 W8        30.07F WCI   9
HUNTINGBURG *+ CLOUDY    18  12  79 W9        30.04S WCI   6

$$

INZ062-063-066-070>080-084-089>092-100800-
SOUTH CENTRAL AND SOUTHEAST INDIANA

CITY           SKY/WX    TMP DP  RH WIND       PRES   REMARKS
BLOOMINGTON    LGT SNOW  15  11  83 W8        29.96F FOG     WCI   4
MADISON *+     CLOUDY    18  12  79 W6        29.98S WCI   9
SEYMOUR +      FLURRIES  19  12  73 W12G20    29.98S WCI   7

$$





USA.gov is the U.S. government's official web portal to all federal, state and local government web resources and services.